This is the latest recevied weather packets stored in our database for station/object WX2NJ. If no packets are shown the sender has not sent any weather packets the latest 10 day(s).
| Time | Temp. | Humidity | Pressure | Rain* | Wind** | Luminosity | Snow |
|---|---|---|---|---|---|---|---|
| 1777910765 | 22.78° C | 28% | 1016.6 hPa | 0 mm | - | 699 W/m² | - |
| 1777910461 | 21.67° C | 29% | 1016.7 hPa | 0 mm | - | 582 W/m² | - |
| 1777910157 | 21.67° C | 29% | 1016.8 hPa | 0 mm | - | 242 W/m² | - |
| 1777909855 | 22.22° C | 25% | 1016.8 hPa | 0 mm | - | 328 W/m² | - |
| 1777909552 | 22.22° C | 28% | 1017 hPa | 0 mm | - | 250 W/m² | - |
| 1777909249 | 21.67° C | 29% | 1016.7 hPa | 0 mm | - | 240 W/m² | - |
| 1777908947 | 21.67° C | 31% | 1016.9 hPa | 0 mm | - | 232 W/m² | - |
| 1777908645 | 21.67° C | 33% | 1016.8 hPa | 0 mm | - | 81 W/m² | - |
| 1777908342 | 21.11° C | 32% | 1017 hPa | 0 mm | - | 214 W/m² | - |
| 1777908038 | 21.67° C | 32% | 1016.9 hPa | 0 mm | - | 208 W/m² | - |
| 1777907733 | 21.67° C | 32% | 1017.3 hPa | 0 mm | - | 204 W/m² | - |
| 1777907428 | 21.67° C | 33% | 1017.1 hPa | 0 mm | - | 201 W/m² | - |
| 1777907125 | 20.56° C | 34% | 1017.2 hPa | 0 mm | - | 197 W/m² | - |
| 1777906823 | 20.56° C | 33% | 1017.2 hPa | 0 mm | - | 196 W/m² | - |
| 1777906520 | 20.56° C | 35% | 1017.2 hPa | 0 mm | - | 191 W/m² | - |
| 1777906215 | 20.56° C | 33% | 1017.3 hPa | 0 mm | - | 188 W/m² | - |
| 1777905912 | 20.56° C | 36% | 1017.3 hPa | 0 mm | - | 185 W/m² | - |
| 1777905609 | 20° C | 36% | 1017.2 hPa | 0 mm | - | 181 W/m² | - |
| 1777905306 | 20.56° C | 34% | 1017.4 hPa | 0 mm | - | 179 W/m² | - |
| 1777905004 | 20° C | 34% | 1017.2 hPa | 0 mm | - | 175 W/m² | - |
| 1777904701 | 20° C | 36% | 1017.3 hPa | 0 mm | - | 172 W/m² | - |
| 1777904397 | 20.56° C | 34% | 1017.5 hPa | 0 mm | - | 171 W/m² | - |
| 1777904094 | 20° C | 33% | 1017.6 hPa | 0 mm | - | 170 W/m² | - |
| 1777903791 | 19.44° C | 33% | 1017.6 hPa | 0 mm | - | 166 W/m² | - |
| 1777903487 | 19.44° C | 33% | 1017.6 hPa | 0 mm | - | 164 W/m² | - |
* Rain latest hour (hover to see other rain measurements)
** Current wind speed in m/s (hover to see current wind gust speed)